Regional Weather Roundup
Issued by NWS Grand Forks, ND

Home | Current Version | Previous Version | Text Only | Print | Product List | Glossary On
Versions: 1 2 3 4 5 6 7 8 9 10 11 12 13 14 15 16 17 18 19 20 21 22 23 24 25 26 27 28 29 30 31 32 33 34 35 36 37 38 39 40 41 42 43 44 45 46 47 48 49 50
000
ASUS43 KFGF 241210
RWRFGF
PRAIRIE TO PINES  WEATHER ROUNDUP
NATIONAL WEATHER SERVICE EASTERN NORTH DAKOTA/GRAND FORKS ND
600 AM CST TUE JAN 24 2017

 **SATELLITE DATA USED TO AUGMENT SKY COVER AT AUTOMATED STATIONS**
 *****  WEATHER ACROSS EASTERN NORTH DAKOTA  *****

CITY           SKY/WX    TMP DP  RH WIND       PRES   REMARKS
GRAND FORKS    CLOUDY    26  20  77 W8        29.87S WCI  18
6HR MIN TEMP:  25; 6HR MAX TEMP:  27;

GRAND FRKS AFB CLOUDY    25  20  79 NW9       29.87S WCI  16
DEVILS LAKE    NOT AVBL
FARGO          CLOUDY    31  25  78 NW12      29.88R WCI  22
WAHPETON ARPT  CLOUDY    30  27  86 N3        29.89R
$$

 ***** WEATHER ACROSS CENTRAL AND WESTERN NORTH DAKOTA  *****

CITY           SKY/WX    TMP DP  RH WIND       PRES   REMARKS
BISMARCK       CLOUDY    25  19  78 NW6       29.87S WCI  18
6HR MIN TEMP:  24; 6HR MAX TEMP:  29;

MINOT          CLOUDY    24  19  81 W12       29.84S WCI  13
6HR MIN TEMP:  23; 6HR MAX TEMP:  25;

JAMESTOWN      CLOUDY    23  20  88 NW12      29.86R WCI  12
6HR MIN TEMP:  23; 6HR MAX TEMP:  28;

MINOT AFB      CLOUDY    21  17  84 NW14      29.83S WCI   8
GARRISON         N/A     22  17  81 NW12      29.84F WCI  10
WILLISTON      CLOUDY    21  16  81 NW10      29.87S WCI  10
6HR MIN TEMP:  21; 6HR MAX TEMP:  22;

DICKINSON      CLOUDY    20  17  88 NW6       29.80F WCI  12
6HR MIN TEMP:  20; 6HR MAX TEMP:  23; 6HR PCP: TRACE;

HETTINGER      CLOUDY    21  19  92 NE12      29.80F FOG     WCI   9
6HR MIN TEMP:  21; 6HR MAX TEMP:  22; 6HR PCP: TRACE;

$$

 *****  OTHER AIRPORT OBSERVATIONS IN OUR AREA  *****

CITY           SKY/WX    TMP DP  RH WIND       PRES   REMARKS
WALHALLA       NOT AVBL
GRAFTON AIRPOR CLOUDY    25  23  93 W9        29.88R WCI  15
VALLEY CITY AR CLOUDY    25  25 100 NW9       29.88S WCI  15
CANDO          NOT AVBL
CAVALIER APRT  CLOUDY    27  21  80 SW9       29.84R WCI  17
GWINNER        CLOUDY    30  30 100 CALM      29.87F
SHEYENNE NWR     N/A     28  26  92 SW3       29.95S
ROLLA            N/A    N/A N/A N/A MISG        N/A
 ***** THE ABOVE OBSERVATIONS ARE NON NWS ARE NOT QUALITY
       CONTROLLED AND MAY MIS-REPORT RAIN FOR SNOW...
$$

  *****  WEATHER ACROSS NORTHERN MINNESOTA  *****

CITY           SKY/WX    TMP DP  RH WIND       PRES   REMARKS
FLAG ISLAND    CLOUDY    25  21  86 S9        29.82S WCI  15
WARROAD        CLOUDY    25  19  80 S7        29.84S WCI  17
ROSEAU         CLOUDY    25  21  86 S9        29.84R WCI  15
HALLOCK        CLOUDY    27  25  93 SW9       29.84R WCI  17
THF RVR FALLS  CLOUDY    23  20  88 SW8       29.87S WCI  14
6HR MIN TEMP:  23; 6HR MAX TEMP:  25;

BAUDETTE       CLOUDY    24  20  84 SW7       29.84R WCI  16
6HR MIN TEMP:  24; 6HR MAX TEMP:  28;

WASKISH        CLOUDY    28  25  86 W9        29.85S WCI  20
CROOKSTON      CLOUDY    25  21  86 W13       29.89S WCI  13
GREENBUSH NDAW   N/A     25  21  86 SW9         N/A  WCI  15
$$
  *****  WEATHER ACROSS CENTRAL AND WEST MINNESOTA  *****

CITY           SKY/WX    TMP DP  RH WIND       PRES   REMARKS
FOSSTON        CLOUDY    23  21  93 W5        29.87R WCI  17
BEMIDJI        CLOUDY    27  24  87 W6        29.85S WCI  20
PARK RAPIDS    CLOUDY    28  21  75 W7        29.85R WCI  21
6HR MIN TEMP:  28; 6HR MAX TEMP:  30;

ELBOW LAKE     CLOUDY    30  29  99 NW3       29.88R FOG
6HR MIN TEMP:  29; 6HR MAX TEMP:  30;

WADENA         CLOUDY    28  25  86 CALM      29.85S
DETROIT LAKES  CLOUDY    30  27  86 NW3       29.87S
MOORHEAD       CLOUDY    30  25  80 W5        29.89R
FERGUS FALLS   DRIZZLE   28  27  93 N3        29.91S
MORRIS MN      CLOUDY    30  28  93 CALM      29.86S
STAPLES        CLOUDY    28  25  86 NW3       29.86R
$$
  *****  WEATHER ELSEWHERE ACROSS MINNESOTA  *****

CITY           SKY/WX    TMP DP  RH WIND       PRES   REMARKS
DULUTH         CLOUDY    31  25  78 NW5       29.82S
6HR MIN TEMP:  31; 6HR MAX TEMP:  32; 6HR PCP: TRACE;

INTRNTL FALLS  CLOUDY    28  22  78 SW6       29.84R WCI  22
6HR MIN TEMP:  28; 6HR MAX TEMP:  29;

ELY            CLOUDY    30  28  93 CALM      29.82R
CLOQUET        CLOUDY    30  27  86 CALM      29.83S
WHEATON        CLOUDY    30  28  93 CALM      29.90S
BRAINERD       CLOUDY    30  24  78 CALM      29.85S
6HR MIN TEMP:  30; 6HR MAX TEMP:  31;

HIBBING        CLOUDY    29  25  85 W3        29.83R
6HR MIN TEMP:  29; 6HR MAX TEMP:  30;

ALEXANDRIA     CLOUDY    30  25  81 CALM      29.86R
6HR MIN TEMP:  29; 6HR MAX TEMP:  30;

SAINT CLOUD    CLOUDY    31  26  82 CALM      29.86S
6HR MIN TEMP:  30; 6HR MAX TEMP:  31;

MINNEAPOLIS    CLOUDY    32  25  75 N3        29.88R
6HR MIN TEMP:  32; 6HR MAX TEMP:  33;

$$

  *****  WEATHER ACROSS SOUTH DAKOTA  *****

CITY           SKY/WX    TMP DP  RH WIND       PRES   REMARKS
SIOUX FALLS    CLOUDY    32  30  92 E7        29.80R
6HR MIN TEMP:  31; 6HR MAX TEMP:  32;

BROOKINGS      CLOUDY    29  28  96 E9        29.81R WCI  20
WATERTOWN      CLOUDY    28  26  92 E10       29.81F WCI  19
6HR MIN TEMP:  28; 6HR MAX TEMP:  29;

HURON          CLOUDY    30  29  96 E7        29.80S WCI  23
6HR MIN TEMP:  30; 6HR MAX TEMP:  31;

SISSETON         N/A     31  30  96 NE6       29.86S
ABERDEEN       CLOUDY    28  25  88 NE10      29.85S WCI  19
6HR MIN TEMP:  28; 6HR MAX TEMP:  29; 6HR PCP: TRACE;

MITCHELL       CLOUDY    32  30  92 E10       29.79F WCI  24
PIERRE         FOG       28  27  96 NE14      29.75F VSB 3/4 WCI  17
6HR MIN TEMP:  28; 6HR MAX TEMP:  29;

MOBRIDGE       CLOUDY    28  22  78 NE15      29.79R HAZE    WCI  16
RAPID CITY     FRZ RAIN  22  20  92 N20G26    29.72S VSB 1   WCI   7
6HR MIN TEMP:  22; 6HR MAX TEMP:  23;

$$

  *****  SOME WEATHER IN NEARBY STATES *****

CITY           SKY/WX    TMP DP  RH WIND       PRES   REMARKS
GLASGOW MT     CLOUDY    20  16  84 VRB3      29.87S
6HR MIN TEMP:  19; 6HR MAX TEMP:  20; 6HR PCP: TRACE;

GREAT FALLS MT CLOUDY    15  12  88 SW7       29.85S WCI   5
6HR MIN TEMP:  15; 6HR MAX TEMP:  18;

CHEYENNE WY    CLOUDY    25  24  96 N7        29.50S WCI  17
6HR MIN TEMP:  25; 6HR MAX TEMP:  31; 6HR PCP: TRACE;

SCOTTSBLUFF NE LGT SNOW  23  20  88 N9        29.60S VSB 3/4 WCI  13
6HR MIN TEMP:  23; 6HR MAX TEMP:  30; 6HR PCP:  0.29;

OMAHA NE       CLOUDY    30  26  85 E12       29.77F WCI  20
6HR MIN TEMP:  30; 6HR MAX TEMP:  31;

DES MOINES IA  CLOUDY    32  28  85 SE10      29.85S WCI  24
6HR MIN TEMP:  31; 6HR MAX TEMP:  34;

DAVENPORT IA   CLOUDY    33  31  92 CALM      29.88S
6HR MIN TEMP:  32; 6HR MAX TEMP:  33;

CHICAGO IL     CLOUDY    36  32  85 NW9       29.85R
6HR MIN TEMP:  36; 6HR MAX TEMP:  38;

EAU CLAIRE WI  CLOUDY    32  30  92 SW7       29.86S
6HR MIN TEMP:  32; 6HR MAX TEMP:  33;

LA CROSSE WI   CLOUDY    35  31  85 CALM      29.88R
6HR MIN TEMP:  35; 6HR MAX TEMP:  37;

$$

  *****  SOME NATIONAL WEATHER *****

CITY           SKY/WX    TMP DP  RH WIND       PRES   REMARKS
LA GUARDIA NY  LGT RAIN  38  35  89 N17G24    29.35F FOG
6HR MIN TEMP:  39; 6HR MAX TEMP:  40; 6HR PCP:  0.29;

RALEIGH NC     MOCLDY    43  36  76 W5        29.57R
6HR MIN TEMP:  43; 6HR MAX TEMP:  43; 6HR PCP: TRACE;

ATLANTA GA     MOCLDY    46  41  82 NW15G22   29.79R
6HR MIN TEMP:  46; 6HR MAX TEMP:  50;

NEW ORLEANS LA FAIR      48  45  89 CALM      29.92R
6HR MIN TEMP:  46; 6HR MAX TEMP:  52;

OKLAHOMA CITY  FAIR      42  36  79 S10       29.58F
6HR MIN TEMP:  42; 6HR MAX TEMP:  47;

ALBUQUERQUE NM MOCLDY    36  32  85 W8        29.67R
6HR MIN TEMP:  35; 6HR MAX TEMP:  45; 6HR PCP: TRACE;

SALT LAKE CITY CLOUDY    30  23  75 N6        29.70R WCI  24
6HR MIN TEMP:  30; 6HR MAX TEMP:  33; 6HR PCP:  0.01;

LOS ANGELES CA MOCLDY    43  40  89 SE5       29.95S
6HR MIN TEMP:  41; 6HR MAX TEMP:  50;

BOISE ID       CLOUDY    27  22  81 NW12      29.75R WCI  17
6HR MIN TEMP:  27; 6HR MC1F1C2F2C3F3C4F4C5F5C6F6C7F7C8F8C9F9CaFaCbFbCcFcCd!



USA.gov is the U.S. government's official web portal to all federal, state and local government web resources and services.